Tracking 29528 objects as of 12-Sep-2024
HD Live streaming from Space Station
objects crossing your sky now

ONEWEB-0045

Track ONEWEB-0045 now!
10-day predictions
ONEWEB-0045 is classified as:


NORAD ID: 45151
Int'l Code: 2020-008W
Perigee: 1,223.5 km
Apogee: 1,226.1 km
Inclination: 87.9 °
Period: 109.8 minutes
Semi major axis: 7595 km
RCS: Unknown
Launch date: February 6, 2020
Source: United Kingdom (UK)
Launch site: TYURATAM MISSILE AND SPACE COMPLEX (TTMTR)
Your satellite tracking list
Your tracking list is empty




NASA's NSSDC Master Catalog

Two Line Element Set (TLE):
1 45151U 20008W   24255.75298463 -.00000097  00000-0 -31042-3 0  9999
2 45151  87.8979 149.1795 0001722  76.6808 283.4512 13.11419008226079
Source of the keplerian elements: AFSPC